FW1373 Weather Reports


Display with metric or nautical units.
time (UTC)temp
F
wind
direction
speed
MPH
gust
MPH
rain 1hr
in
rain 24hr
in
rain mn
in
humidity
%
barometer
mb
20210804214517 91 235 1.0 5.0 0.00 0.00 0.00 49 1016.8
20210804211711 90 46 3.0 8.0 0.00 0.00 0.00 52 1016.9
20210804210129 90 321 2.0 5.0 0.00 0.00 0.00 51 1016.9
20210804204551 90 250 1.0 6.0 0.00 0.00 0.00 52 1017.0
20210804203124 90 236 2.0 7.0 0.00 0.00 0.00 53 1017.2
20210804200057 90 55 1.0 9.0 0.00 0.00 0.00 53 1017.7
20210804194538 89 103 1.0 5.0 0.00 0.00 0.00 54 1017.9
20210804191728 88 85 0.0 5.0 0.00 0.00 0.00 55 1018.3
20210804190307 87 80 1.0 3.0 0.00 0.00 0.00 57 1018.3
20210804184647 88 273 0.0 5.0 0.00 0.00 0.00 56 1018.3
20210804183125 89 30 1.0 8.0 0.00 0.00 0.00 56 1018.4
20210804181613 87 251 1.0 8.0 0.00 0.00 0.00 56 1018.4
20210804180058 87 305 1.0 6.0 0.00 0.00 0.00 55 1018.5
20210804174635 88 101 0.0 4.0 0.00 0.00 0.00 57 1018.6
20210804171518 87 240 1.0 5.0 0.00 0.00 0.00 56 1018.8
20210804170225 87 287 0.0 6.0 0.00 0.00 0.00 58 1018.8
20210804163104 86 92 1.0 7.0 0.00 0.00 0.00 60 1018.9
20210804161601 85 67 0.0 4.0 0.00 0.00 0.00 64 1019.0
20210804160124 85 105 0.0 3.0 0.00 0.00 0.00 62 1019.0
20210804154552 84 282 1.0 6.0 0.00 0.00 0.00 64 1019.1
20210804153012 83 115 0.0 4.0 0.00 0.00 0.00 67 1019.0
20210804151502 83 187 1.0 4.0 0.00 0.00 0.00 65 1018.9
20210804144715 82 350 0.0 9.0 0.00 0.00 0.00 67 1018.8
20210804143113 82 257 0.0 4.0 0.00 0.00 0.00 70 1018.7
20210804141637 82 261 1.0 5.0 0.00 0.00 0.00 69 1018.6
20210804140027 81 65 0.0 5.0 0.00 0.00 0.00 71 1018.6
20210804134517 80 229 0.0 2.0 0.00 0.00 0.00 72 1018.5
20210804133010 79 291 0.0 2.0 0.00 0.00 0.00 74 1018.2
20210804131717 78 283 0.0 2.0 0.00 0.00 0.00 74 1018.2
20210804130123 78 290 0.0 2.0 0.00 0.00 0.00 75 1018.1
20210804124608 77 291 0.0 1.0 0.00 0.00 0.00 76 1018.0
20210804123134 76 291 0.0 0.0 0.00 0.00 0.00 80 1017.9
20210804121618 75 291 0.0 0.0 0.00 0.00 0.00 81 1017.8
20210804120028 75 291 0.0 0.0 0.00 0.00 0.00 81 1017.5
20210804114522 75 290 0.0 0.0 0.00 0.00 0.00 81 1017.4
20210804113010 75 291 0.0 0.0 0.00 0.00 0.00 80 1017.2
20210804110133 76 290 0.0 1.0 0.00 0.00 0.00 80 1017.0
20210804104630 76 291 0.0 1.0 0.00 0.00 0.00 80 1016.9
20210804044719 80 286 0.0 1.0 0.00 0.00 0.00 69 1016.7
20210804043057 80 285 0.0 1.0 0.00 0.00 0.00 69 1016.6
20210804041621 79 285 0.0 0.0 0.00 0.00 0.00 70 1016.6
20210804040028 79 285 0.0 0.0 0.00 0.00 0.00 69 1016.5
20210804034543 80 286 0.0 0.0 0.00 0.00 0.00 67 1016.5
20210804033041 81 285 0.0 1.0 0.00 0.00 0.00 65 1016.3
20210804031533 82 285 0.0 1.0 0.00 0.00 0.00 65 1016.2
20210804030006 82 286 0.0 1.0 0.00 0.00 0.00 64 1015.9
20210804024719 82 298 0.0 2.0 0.00 0.00 0.00 64 1015.6
20210804023130 82 298 0.0 2.0 0.00 0.00 0.00 63 1015.3
20210804020055 84 313 0.0 2.0 0.00 0.00 0.00 60 1015.0
20210804014616 85 249 0.0 3.0 0.00 0.00 0.00 56 1015.0
20210804013119 86 224 0.0 3.0 0.00 0.00 0.00 52 1014.8
20210804011645 86 217 0.0 1.0 0.00 0.00 0.00 52 1014.7
20210804010047 87 242 1.0 4.0 0.00 0.00 0.00 50 1014.5
20210804004510 87 213 0.0 3.0 0.00 0.00 0.00 49 1014.4
20210804003230 88 219 0.0 1.0 0.00 0.00 0.00 48 1014.2
20210804001758 88 237 0.0 4.0 0.00 0.00 0.00 50 1014.2
20210804000135 89 134 0.0 2.0 0.00 0.00 0.00 49 1014.3
20210803234623 89 149 0.0 0.0 0.00 0.00 0.00 50 1014.2
20210803233118 88 135 0.0 3.0 0.00 0.00 0.00 51 1014.4
20210803231609 88 135 0.0 1.0 0.00 0.00 0.00 52 1014.5
20210803224514 89 226 2.0 6.0 0.00 0.00 0.00 46 1014.7
20210803223008 90 131 0.0 1.0 0.00 0.00 0.00 46 1014.7
20210803221845 91 178 0.0 2.0 0.00 0.00 0.00 46 1015.0
20210803220157 91 130 0.0 2.0 0.00 0.00 0.00 44 1015.1